カタログに戻る

CONTINUUM-1

運用中科学SSO
NORAD 55045·PAYLOAD·🇦🇺 Australia

打ち上げ Jan 3, 2023 から Cape Canaveral Space Force Station

Loading…

次のパス (今後24時間)

TLE

最新Source: Space-Track

元期: Sep 14, 2026, 14:38 UTC

1 55045U 23001AN  26257.60986469  .00009443  00000-0  29605-3 0  9990
2 55045  97.3270 319.7634 0009797 124.3135 235.9036 15.33231282205941

AllMySatでCONTINUUM-1をリアルタイム追跡

Download on the App Store